Miscellaneous Local Product
Issued by NWS North Platte, NE

Home | Current Version | Previous Version | Text Only | Print | Product List | Glossary On
Versions: 1 2 3 4 5 6 7 8 9 10 11 12 13 14 15 16 17 18 19 20 21 22 23 24 25 26 27 28 29 30 31 32 33 34 35 36 37 38 39 40 41 42 43 44 45 46 47 48 49 50
000
AXUS43 KLBF 261910
MISLBF


WESTERN AND NORTH CENTRAL NEBRASKA HOURLY WEATHER ROUNDUP
NATIONAL WEATHER SERVICE NORTH PLATTE NE
200 PM CDT TUE JUL 26 2016

NOTE: "FAIR" INDICATES FEW OR NO CLOUDS BELOW 12,000 FEET WITH NO
SIGNIFICANT WEATHER AND/OR OBSTRUCTIONS TO VISIBILITY.

NOTE: STATIONS NOT REPORTING VARIABLES SUCH AS SKY/WEATHER OR
PRESSURE ARE PROVIDED BY RAWS AND APRS NETWORKS AND ARE NOT UNDER
NATIONAL WEATHER SERVICE QUALITY CONTROL.

...OBSERVATIONS IN AND NEAR THE EASTERN PANHANDLE OF NEBRASKA...

CITY           SKY/WX    TMP DP  RH WIND       PRES   REMARKS
PINE RIDGE     SUNNY     88  63  43 SE14G21   30.01F
CHADRON        SUNNY     89  59  36 SE12G18   29.99F
ALLIANCE       SUNNY     89  63  41 SE15      30.03F HX  90
SIDNEY         SUNNY     92  54  27 S15G22    30.08F HX  90
CRESCENT LAKE    N/A     87  65  47 S6G13       N/A
$$

...OBSERVATIONS IN NORTHERN NEBRASKA AND FAR SOUTHERN SOUTH DAKOTA...

CITY           SKY/WX    TMP DP  RH WIND       PRES   REMARKS
WINNER         FAIR      91  62  37 S6        29.98F HX  91
VALENTINE      CLOUDY    88  61  40 S13       30.00F
THEDFORD       SUNNY     87  65  47 S9        30.07F
AINSWORTH      MOSUNNY   87  67  49 S10       30.03F HX  90
O`NEILL        SUNNY     87  58  37 S13G21    30.04F
ORD            SUNNY     84  62  47 S12       30.05S
BROKEN BOW     SUNNY     83  67  58 S12       30.06F
VALENTINE NWR    N/A     87  65  47 W6G13       N/A
BUTTE            N/A     88  62  41 S10G18      N/A
HALSEY           N/A     86  63  46 SW6G16      N/A
EWING            N/A     86  68  55 S8          N/A
$$

...OBSERVATIONS IN SOUTHWEST NEBRASKA AND FAR NORTHEAST COLORADO...

CITY           SKY/WX    TMP DP  RH WIND       PRES   REMARKS
HOLYOKE        FAIR      88  64  45 W8        30.06F
IMPERIAL       SUNNY     89  61  38 S15G23    30.04F
OGALLALA       SUNNY     89  64  44 S13       30.04F HX  90
NORTH PLATTE   SUNNY     86  68  54 SE10      30.04F
MCCOOK         SUNNY     90  65  43 S16       30.03F HX  92
LEXINGTON      SUNNY     84  65  52 S12       30.05F
STAPLETON        N/A     86  70  58 CALM        N/A  HX  90
GOTHENBURG       N/A     82  64  54 S7          N/A
CALLAWAY         N/A     81  71  71 S12         N/A
$$

...OBSERVATIONS IN CENTRAL LINCOLN COUNTY AREA...

CITY           SKY/WX    TMP DP  RH WIND       PRES   REMARKS
N.P. AIRPORT   SUNNY     86  68  54 SE10      30.04F
N.P. DOWNTOWN    N/A     87  69  55 S3          N/A  HX  91
N.P. SOUTHEAST   N/A     85  69  58 SE7         N/A
N.P. HILLCREST   N/A     84  69  61 SE12G20     N/A
$$

...SOME OBSERVATIONS FROM AROUND THE REGION...

CITY           SKY/WX    TMP DP  RH WIND       PRES   REMARKS
DENVER         CLOUDY    90  38  16 N10       30.16S
LARAMIE        CLOUDY    86  27  11 N8G17     30.28F
CHEYENNE       CLOUDY    89  47  23 SE13      30.19F
SCOTTSBLUFF    SUNNY     90  55  30 VRB3      30.03F
RAPID CITY     SUNNY     84  56  38 SE9       30.05S
BISMARCK       CLOUDY    75  67  76 N15G24    29.90F
PIERRE         PTSUNNY   89  62  40 NE12      29.94F
SIOUX FALLS    MOSUNNY   85  61  44 SW15G21   30.02F
OMAHA          PTSUNNY   86  62  44 SE9       30.05F
GRAND ISLAND   SUNNY     85  66  53 SE10G20   30.06F
KANSAS CITY    MOSUNNY   86  65  49 NE6       30.05F
WICHITA        PTSUNNY   89  71  55 E10       30.01F HX  95
OKLAHOMA CITY  PTSUNNY   85  70  60 CALM      30.00F
DALLAS         PTSUNNY   93  70  46 E6        29.93F HX  99
AMARILLO       SUNNY     94  57  28 E8G16     30.08F HX  92
DODGE CITY     MOSUNNY   85  68  56 SE9       30.07F
HAYS           MOSUNNY   84  64  51 SE10      30.06F
GOODLAND       SUNNY     84  67  56 S16G22    30.08F
$$




USA.gov is the U.S. government's official web portal to all federal, state and local government web resources and services.